Showing default

NEONSAT-1, 59587

Orbit data source: Space-Track

NEONSAT-1, 59587 is a payload satellite owned by KAIST (KR) in SSO that was launched on Tue, 23 Apr 2024 UTC via an ELECTRON launch vehicle from the Rocket Lab Launch Complex (RLLC). Payload-class satellites include a variety of spacecraft equipped with specific instruments for various scientific and technological missions. These include communications satellites like Starlink; space stations such as the ISS; scientific satellites like the Hubble; Earth observation satellites from companies like Planet Labs, Umbra, and HawkEye 360; GPS; miniature CubeSats for education and research; and military/defense satellites.

Loading next visibility...
Identifier
59587, 2024-077A
Orbit
SSO
Country
Flag of UnknownUnknown / SKOR
Related business
Manufacturer
KAIST/SATRHW
Mission
Operational Civil Imaging
Bus & Motor
NEONSAT, Unknown motor
Mass
~100 kg wet, ~100 kg dry
Launch date (UTC)
2024-04-23 (2 years ago)
Launch vehicle
ELECTRON
Launch site
Rocket Lab Launch Complex (RLLC)
Object type
Payload
Rocket body
Debris
Shape & HBR
Box + Cyl + 4 Pan, 0.5 m
Radar Cross Section
0.625 m², Medium (>0.1 m² and < 1m²)

Expand to show TLE details & history
Last TLE update: 18 hours ago

TLE from 18 hours ago
0 NEONSAT-1
1 59587U 24077A   25348.97330558  .00008960  00000-0  27955-3 0  9990
2 59587  97.3662  68.1783 0009795 340.2656  19.8206 15.33403383 91456
Epoch: 2025-12-14T23:21Z
TLE epoch observation values (Epoch: 2025-12-14T23:21:33.602Z)
Latitude
-0.00001°
Longitude
-6.09025°
Altitude
462.47 km
Speed
7.639 km/s
True Right ascension
04h 32m 42s
True Declination
0° 00' 00"
Sunlit
Object was in full shadow at epoch
Visualization orbit readout
Latitude
Unknown
Longitude
Unknown
Altitude
Unknown
Speed
Unknown
Apparent Right ascension
Unknown
Apparent Declination
Unknown
Sunlit
N/A
Visualization observer readout
Local Sidereal Time
16:13:25
Azimuth
Unknown
Elevation
Unknown
Doppler factor
Unknown
Orbital elements
Apogee altitude
469.314 km
Perigee altitude
455.913 km
Semi-major axis
6,840.75 km
Eccentricity
0.00098
Inclination
97.3662°
RAAN
68.1783°
Arg. of periapsis
340.2656°
True anomaly
19.8587°
Mean anomaly
19.8206°
Eccentric anomaly
19.83965°
Mean motion
3.83608 °/min
Orbital period
93.85 mins
BSTAR
0.00027955
Loading maneuver chart data...
Computing Atmospheric mass density...
Loading historical data...
Loading historical data...
Loading historical data...
Loading historical data...
Loading historical data...
Loading historical data...
Loading historical data...
Other satellites on launch #77 in the year 2024 (2024-04-23 UTC)

Documentation

Showing up to 5 results
|